Probability
0 0 0 0 0 0 0 0 0 0 1 2 4 4 5 6 7 8 10 11 11 9 8 7 7 8 11 13 13 14 15 14 11 9 9 11 13 12 8 6 6 6 6 6
0 0 0 0 0 0 0 1 1 0 1 3 5 5 5 6 8 9 11 12 12 11 11 9 10 12 14 14 14 15 15 14 12 10 9 11 12 11 8 7 7 7 7 7
0 0 0 0 0 0 0 2 2 2 3 6 7 7 5 6 8 9 10 10 11 12 12 12 14 16 18 18 16 16 15 14 13 11 10 10 11 11 9 8 7 8 9 9
0 0 0 0 0 0 0 1 2 3 7 9 9 9 8 7 7 7 8 8 8 9 11 13 15 17 18 19 19 17 16 15 12 10 10 10 10 9 9 7 7 8 9 9
0 0 0 0 0 0 0 0 2 5 8 10 10 10 9 8 7 7 7 7 8 9 11 13 14 15 16 18 19 18 17 15 12 11 10 9 8 8 7 6 7 7 8 7
0 0 0 0 0 0 0 0 3 6 7 8 9 9 8 7 7 7 8 8 9 11 13 15 15 13 13 14 15 14 14 12 11 11 10 9 8 7 7 6 6 7 7 6
0 0 0 0 0 0 0 0 2 5 6 6 7 8 8 8 7 7 8 8 9 11 13 14 13 10 9 9 9 8 9 9 10 11 11 10 9 8 9 8 7 7 8 7
0 0 0 1 0 0 0 0 1 4 6 6 6 7 8 8 8 7 7 7 7 9 10 10 8 6 5 4 4 4 6 8 9 10 11 11 11 11 12 11 9 9 10 9
0 0 1 2 1 0 0 0 1 4 6 7 7 7 6 6 6 5 4 5 5 5 5 5 3 3 2 2 1 2 4 6 7 9 10 11 12 13 14 13 13 13 13 12
0 0 0 1 0 0 0 1 2 5 7 7 6 5 4 5 4 3 3 3 3 3 2 1 1 1 1 1 1 2 3 4 5 7 8 9 10 11 12 13 15 16 14 12
0 0 0 0 0 0 0 1 4 7 9 7 5 4 4 4 3 3 3 3 3 3 1 0 0 0 1 2 2 3 3 3 3 5 7 7 7 7 8 10 11 13 13 12
0 0 0 0 0 1 1 2 4 7 9 7 6 5 4 3 2 3 3 3 3 2 1 0 0 0 1 1 2 2 2 2 3 4 5 5 4 4 5 5 5 6 8 9
0 0 0 0 1 2 2 3 4 5 6 6 5 5 5 4 3 2 2 2 2 3 2 1 1 1 2 1 1 2 2 2 3 5 4 3 2 3 3 2 1 2 3 4
0 0 0 1 2 3 3 4 3 3 3 4 4 5 5 5 4 3 2 2 3 3 3 2 2 3 3 3 2 2 3 3 3 4 4 3 2 3 2 1 0 0 0 1
0 0 0 1 2 2 3 3 3 3 3 5 5 4 5 5 5 4 3 2 2 2 3 3 3 3 3 3 3 3 3 3 3 3 3 3 3 3 2 1 0 0 0 0
0 0 0 0 1 1 1 2 3 3 4 5 6 4 4 4 5 5 2 1 1 2 3 3 3 3 3 3 3 3 3 3 3 3 3 3 3 3 2 1 0 0 0 0
0 1 1 0 0 0 1 2 3 4 4 4 5 4 3 3 5 5 3 1 1 2 2 3 3 3 3 3 3 3 3 2 2 3 3 3 3 3 3 1 0 0 0 0
1 1 1 0 0 0 1 2 4 4 4 3 3 3 2 3 4 5 4 2 1 1 1 2 3 3 3 3 3 3 2 1 1 1 3 3 3 3 3 2 1 0 0 0
0 1 1 0 0 0 1 1 2 3 3 3 3 3 3 2 3 4 3 2 1 0 0 1 1 2 3 3 2 2 2 1 1 1 2 2 2 3 3 3 2 0 0 0
0 0 0 0 0 0 0 0 1 2 3 3 4 4 2 2 2 2 1 1 0 0 0 0 0 1 2 1 1 1 1 1 2 1 1 1 1 1 2 2 1 0 0 0
0 0 0 0 0 0 1 1 2 2 2 3 4 4 2 1 2 1 0 0 1 1 1 0 0 0 0 0 0 0 0 1 1 1 0 0 0 0 1 1 0 0 0 0
0 0 0 0 0 1 2 2 2 2 1 2 3 3 1 1 2 1 0 1 2 2 1 1 1 0 0 0 0 0 0 0 0 0 0 0 0 0 0 0 0 0 0 0
0 0 0 0 1 2 3 2 1 1 0 1 2 2 1 1 1 1 1 2 2 1 1 0 0 0 0 0 0 0 0 0 0 0 0 0 0 0 0 0 0 0 0 0
0 0 0 0 2 3 2 1 0 0 0 0 1 1 0 0 1 0 1 2 2 1 0 0 0 0 0 0 0 0 0 0 0 0 0 0 0 0 0 0 0 0 0 0
0 0 0 0 1 1 0 0 0 0 0 0 0 0 0 0 1 1 1 1 1 0 0 0 0 0 0 0 0 0 0 0 0 0 0 0 0 0 0 0 0 0 0 0
0 0 0 0 0 0 0 0 0 0 0 0 0 0 0 0 1 1 1 0 0 0 0 0 1 1 0 0 0 0 0 0 0 1 0 0 0 0 0 0 0 0 0 0
0 0 0 0 0 0 0 0 0 0 0 0 0 0 0 0 0 1 0 0 0 0 0 1 2 2 1 0 0 0 0 0 0 1 0 0 0 0 0 0 0 0 0 0
Wind_Speed
4 4 0 1 1 2 2 5 6 6 7 9 9 9 6 5 5 5 5 5 6 6 5 5 4 4 4 3 3 4 4 3 3 3 3 3 3 3 2 2 3 2 2 1
3 2 3 3 3 3 1 2 3 4 3 4 5 5 4 5 7 6 5 5 5 6 5 5 5 5 4 4 4 4 4 3 2 2 2 3 3 3 3 3 2 2 2 2
2 3 4 3 2 0 1 0 4 4 6 5 5 5 7 7 7 6 6 6 5 5 4 4 5 5 5 4 3 3 3 3 3 3 3 3 3 3 3 3 3 3 3 2
1 3 0 6 3 3 5 4 2 2 3 6 7 5 4 5 7 6 6 6 5 5 4 3 2 3 3 4 3 3 2 2 2 2 3 3 3 3 3 3 3 3 4 3
3 2 3 5 3 1 4 3 3 4 5 5 6 6 2 1 4 5 5 5 4 4 4 3 3 3 4 3 3 2 2 2 2 3 3 3 3 4 3 3 3 3 3 4
3 2 4 6 5 1 6 2 3 4 6 6 5 4 2 1 4 5 4 4 3 3 4 4 2 3 4 3 2 2 3 3 3 3 3 3 4 4 3 3 3 3 3 4
3 3 4 6 4 4 4 5 3 3 3 4 3 4 4 3 4 4 4 3 4 4 4 2 2 4 4 2 2 3 2 2 2 2 2 3 2 2 3 3 2 2 3 3
2 2 5 5 3 3 5 3 2 3 4 5 5 5 5 5 4 5 4 4 3 4 2 1 2 3 2 2 3 2 1 1 2 2 2 1 2 2 2 2 2 3 2 3
4 5 4 1 3 3 4 4 2 3 3 7 7 6 5 4 3 4 4 3 2 2 2 1 1 2 1 2 2 1 1 1 2 2 2 2 2 2 2 2 2 3 3 3
2 2 1 2 3 4 5 5 4 5 5 7 7 6 5 5 3 3 2 2 2 2 1 1 1 0 1 2 1 1 1 2 2 2 2 2 1 1 2 2 3 3 3 3
1 2 3 4 3 3 5 6 7 6 4 6 8 6 5 4 3 2 2 1 2 1 1 1 1 1 1 1 1 1 2 2 2 2 2 2 1 2 3 3 4 4 4 3
4 4 2 3 2 3 5 4 5 6 4 2 4 5 5 4 3 3 2 2 1 1 0 1 1 1 2 2 1 1 1 2 2 2 2 1 1 2 3 3 3 4 5 5
4 3 3 2 0 3 4 4 3 4 5 4 4 5 5 4 2 2 2 2 1 0 0 0 1 1 2 2 2 1 1 2 2 2 1 1 1 1 2 3 3 3 3 4
2 3 1 0 0 2 3 3 4 4 4 4 4 4 4 4 3 3 2 1 0 1 0 0 1 2 3 2 2 2 2 2 2 1 1 1 1 2 1 1 2 2 3 3
0 2 2 1 1 3 3 4 4 3 3 3 3 4 4 4 3 2 2 2 1 1 0 1 1 2 3 2 2 2 2 2 1 1 1 1 1 1 1 1 1 1 1 2
1 2 2 2 2 2 3 4 4 2 2 2 2 2 3 4 2 1 1 2 2 1 1 1 2 3 2 1 1 2 2 3 3 2 1 1 1 1 1 1 1 1 2 2
4 2 1 1 2 1 1 2 2 2 2 2 2 2 3 3 2 1 0 1 1 2 2 2 2 2 2 2 1 2 2 2 4 2 2 2 1 1 1 1 1 2 2 2
3 3 2 3 3 2 1 2 2 1 1 2 2 3 3 3 2 2 2 1 0 1 2 2 2 1 2 2 2 2 2 2 2 2 2 2 2 2 2 2 2 2 2 2
2 2 2 2 2 3 2 1 1 0 0 2 2 2 2 2 2 2 2 1 1 2 4 4 3 1 2 3 2 1 2 2 2 2 1 2 2 2 2 2 2 2 2 2
2 3 3 2 2 2 1 1 1 1 1 1 2 2 1 1 2 2 1 2 3 4 4 3 2 2 2 3 2 1 2 2 2 2 2 2 2 2 2 2 2 2 2 1
3 2 2 2 1 0 1 1 1 1 0 1 2 2 2 2 1 1 1 2 4 3 2 2 2 2 2 2 2 1 2 2 2 2 2 2 2 2 2 2 2 2 1 1
1 1 1 1 1 0 0 1 1 1 1 1 1 2 1 1 1 1 2 3 3 2 1 1 2 3 3 3 1 1 2 2 2 1 1 1 1 1 2 2 2 2 1 1
1 1 1 1 1 0 1 0 0 1 1 2 2 2 2 2 2 2 2 3 2 2 1 2 3 3 3 1 1 1 2 2 1 1 1 1 1 1 1 1 1 1 1 1
0 0 1 1 1 1 1 2 1 1 1 2 2 2 2 2 1 2 2 3 2 2 2 3 3 3 3 1 1 1 1 1 1 1 1 1 1 1 1 1 1 1 1 1
0 0 0 0 0 1 1 1 1 1 1 1 1 1 1 2 2 2 2 2 2 2 1 2 2 2 1 1 1 1 1 1 1 1 1 1 1 1 1 1 1 1 1 2
0 1 1 1 2 2 1 1 0 0 0 0 1 1 1 1 1 1 1 1 2 1 1 1 1 1 1 1 1 1 1 1 1 1 1 0 1 1 1 1 1 1 1 1
1 1 1 1 1 1 1 1 1 1 1 1 1 1 1 0 0 0 1 1 0 0 0 0 1 0 0 0 0 0 0 1 1 1 1 1 0 0 0 0 0 1 1 1
Wind_Direction
210 224 219 358 1 51 103 176 176 210 194 207 194 185 189 173 149 144 145 147 153 150 148 141 136 140 150 155 159 157 156 169 191 201 199 194 192 192 191 186 197 199 199 201
349 352 25 32 27 44 59 119 140 141 211 215 184 156 151 148 141 141 143 144 146 138 136 139 144 149 153 162 170 154 159 175 180 189 207 201 200 198 196 204 210 202 207 205
294 323 38 355 301 70 39 61 145 178 213 162 149 158 167 162 147 152 147 141 140 142 146 157 164 156 155 164 162 153 166 179 181 189 204 207 208 200 212 215 212 220 227 218
142 41 257 251 277 106 90 38 31 136 147 147 151 148 150 152 143 150 140 136 142 149 151 142 136 138 146 142 139 145 159 181 203 201 205 209 207 216 222 218 217 223 230 220
115 149 266 303 328 28 108 21 6 101 105 109 110 88 46 109 134 147 146 144 144 152 147 137 135 143 131 136 140 144 171 200 206 197 204 213 217 224 224 217 230 233 229 215
133 154 222 249 277 200 99 20 321 122 136 144 124 112 222 171 109 106 104 114 124 122 114 117 127 131 128 146 149 178 208 220 216 203 205 220 224 229 225 219 230 235 234 223
165 193 252 264 292 58 108 232 257 134 137 136 145 174 178 135 104 103 105 101 109 107 105 120 123 118 129 149 202 226 230 225 223 224 226 226 226 234 234 228 233 237 238 237
141 165 251 297 47 113 201 211 116 114 127 120 118 111 113 117 113 107 95 84 90 103 106 112 107 113 134 209 236 234 214 219 239 246 249 239 223 247 243 223 229 242 243 254
173 203 242 318 122 160 145 119 94 100 117 115 114 115 117 116 112 105 100 94 87 114 119 84 78 120 155 261 262 224 235 256 259 255 252 240 217 233 239 222 227 240 231 237
53 319 313 49 77 73 87 98 99 105 115 118 123 127 128 128 123 113 113 109 96 97 100 350 325 299 227 264 270 213 242 262 267 271 281 285 266 222 219 228 235 240 231 235
35 298 9 12 47 72 79 87 91 96 107 135 135 136 141 142 142 130 113 88 94 106 161 261 298 308 307 319 342 291 267 270 279 275 256 254 266 250 234 233 221 216 218 212
213 223 182 256 281 97 96 101 112 110 92 114 136 138 135 140 149 137 128 119 112 123 207 277 340 336 326 335 342 318 301 293 285 277 270 251 256 307 312 272 274 245 229 214
192 197 188 217 228 101 112 120 119 124 125 118 118 122 126 132 138 127 111 100 127 131 56 52 34 341 323 328 340 324 285 278 284 281 265 260 262 253 282 307 307 291 268 246
170 111 79 7 158 99 109 111 109 107 112 123 123 118 117 118 119 122 123 120 121 85 54 43 42 324 310 326 340 319 302 295 298 286 274 257 255 257 245 249 291 308 303 289
179 146 181 198 98 92 93 96 90 89 96 98 109 114 118 122 136 164 167 145 138 103 34 22 360 314 315 337 349 326 315 302 297 291 285 276 272 284 277 254 248 269 295 316
157 104 106 94 99 95 89 98 109 112 111 107 111 125 133 136 154 166 149 139 137 187 253 280 290 289 309 337 338 318 309 312 312 306 306 307 304 304 297 278 271 261 254 258
116 119 121 122 130 123 103 115 128 143 141 143 150 142 120 108 100 94 132 172 174 218 246 240 250 278 308 314 300 292 290 301 312 315 306 296 285 275 270 265 263 262 261 250
134 145 153 159 148 134 107 97 110 126 175 189 159 135 138 144 170 207 219 209 189 319 297 277 268 282 295 298 287 285 283 281 293 295 296 296 284 269 259 258 256 251 255 256
103 107 101 103 113 115 111 113 122 170 157 134 135 153 170 178 189 203 193 168 187 275 287 288 279 273 293 298 306 289 281 285 297 296 293 298 300 295 284 273 263 247 231 232
85 95 90 82 88 107 118 128 123 118 127 120 121 131 149 209 213 204 183 216 230 230 243 255 264 270 278 283 296 282 280 276 274 274 269 271 278 288 293 287 274 262 253 243
81 87 101 106 82 52 196 178 145 166 243 151 150 174 202 229 232 198 182 251 269 266 255 247 256 273 278 286 295 299 296 288 282 279 277 284 291 297 300 295 289 276 264 255
102 120 150 146 120 18 291 207 163 164 178 179 184 176 170 197 246 246 236 235 250 259 258 261 261 268 277 291 293 295 297 294 287 286 286 286 280 279 284 292 295 288 286 286
161 201 181 154 149 191 315 308 187 181 196 198 194 188 187 200 196 192 256 265 251 251 248 257 272 278 277 287 298 294 290 286 284 283 284 287 281 276 290 304 309 310 303 306
141 228 234 223 111 83 358 301 296 264 222 217 216 203 195 196 238 237 228 245 241 250 257 266 285 296 287 277 282 293 294 288 282 279 292 310 331 353 356 343 336 336 344 353
230 236 234 113 102 204 230 275 352 345 330 308 287 264 240 202 207 239 242 245 243 243 268 286 308 309 289 267 288 306 313 305 298 287 304 318 333 354 11 11 12 14 24 37
275 274 246 217 205 200 198 158 141 244 259 339 318 305 286 242 215 240 267 266 252 247 254 278 299 297 275 272 297 320 335 347 346 349 347 354 4 27 49 33 15 17 32 87
315 307 316 331 273 208 176 159 183 227 210 181 211 288 289 287 277 266 286 311 320 267 202 245 251 223 261 281 307 342 2 358 2 6 351 350 29 96 110 44 17 6 31 62